Orbital Elements at Epoch 2459200.5 (2020-Dec-17.0) TDB
Reference: JPL 21 (heliocentric ecliptic J2000)
Element | Value | Uncertainty (1-sigma) | Units |
e | .09447019981144909 | 4.6193e-08 | |
a | 2.38030788229353 | 8.917e-09 | au |
q | 2.155439721040493 | 1.0755e-07 | au |
i | 3.002280169217254 | 3.9429e-06 | deg |
node | 122.9260131574605 | 7.7926e-05 | deg |
peri | 33.18369804055918 | 8.0014e-05 | deg |
M | 205.2611373297381 | 1.9261e-05 | deg |
tp | 2459777.060689892476 (2022-Jul-16.56068989) | 7.3157e-05 | TDB |
period | 1341.368579162894 3.67 | 7.5375e-06 2.064e-08 | d yr |
n | .2683826098153161 | 1.5081e-09 | deg/d |
Q | 2.605176043546567 | 9.7594e-09 | au |
|
| | Orbit Determination Parameters
Additional Information
|